Location: Alafon
(8.4500°N, 4.2333°E)
Time: 23:05:09
(UTC+00:00)

Vanguard 2 - Pass Details

Date: 11 August 2021
Orbit: 553 x 2937 km, 32.9° (Epoch: 26 September)

Event Time Altitude Azimuth Distance (km) Brightness Sun altitude
Rises 09:24:07 0° 283° (WNW) 3,518 10.6 54.1°
Reaches altitude 10° 09:26:28 10° 274° (W) 2,810 10.2 54.7°
Maximum altitude 09:32:50 37° 208° (SSW) 2,030 9.9 56.2°
Drops below altitude 10° 09:42:59 10° 146° (SE) 4,466 11.7 58.7°
Sets 09:47:49 0° 139° (SE) 5,867 12.2 59.8°
